KLM249 EHAM-CYQX

Flight info

Callsign KLM249
Flight time N/A
Altitude 36000
Route BERGI L60 PENIL M144 BAGSO DCT GIMRO DCT LIMRI/M083F380 DCT 53N020W 53N030W 53N040W 52N050W DCT TUDEP/N0471F380 DCT YQX
Aircraft B77W/H-SDE1E2E3FGHIJ2J3J4J5M1RWXY/LB1D1

Departure

Time 2026-05-05 17:34
Airport Amsterdam Airport Schiphol (EHAM)

Arrival

Time N/A
Airport Gander International Airport (CYQX)
Time Latitude Longitude Altitude Speed Heading
2026-05-05 17:09 52.31233 4.76315 5 ft 0 kts 268°
2026-05-05 17:19 52.31234 4.76341 7 ft 3 kts 268°
2026-05-05 17:19 52.31234 4.76371 6 ft 2 kts 268°
2026-05-05 17:19 52.31232 4.76400 7 ft 3 kts 300°
2026-05-05 17:19 52.31220 4.76424 8 ft 3 kts 337°
2026-05-05 17:20 52.31207 4.76430 8 ft 0 kts 359°
2026-05-05 17:21 52.31208 4.76430 8 ft 1 kts 359°
2026-05-05 17:22 52.31264 4.76438 8 ft 6 kts
2026-05-05 17:22 52.31328 4.76437 10 ft 11 kts 350°
2026-05-05 17:22 52.31399 4.76410 14 ft 11 kts 344°
2026-05-05 17:22 52.31469 4.76372 21 ft 11 kts 336°
2026-05-05 17:23 52.31523 4.76292 22 ft 11 kts 300°
2026-05-05 17:23 52.31536 4.76172 21 ft 11 kts 270°
2026-05-05 17:23 52.31534 4.76048 23 ft 11 kts 267°
2026-05-05 17:23 52.31529 4.75924 25 ft 12 kts 265°
2026-05-05 17:24 52.31522 4.75770 17 ft 15 kts 266°
2026-05-05 17:24 52.31515 4.75586 16 ft 16 kts 267°
2026-05-05 17:24 52.31509 4.75401 16 ft 16 kts 267°
2026-05-05 17:24 52.31504 4.75207 14 ft 17 kts 267°
2026-05-05 17:25 52.31498 4.75011 18 ft 17 kts 268°
2026-05-05 17:25 52.31495 4.74881 19 ft 17 kts 268°
2026-05-05 17:25 52.31488 4.74622 25 ft 17 kts 266°
2026-05-05 17:25 52.31474 4.74425 22 ft 18 kts 261°
2026-05-05 17:26 52.31549 4.74300 19 ft 18 kts 354°
2026-05-05 17:26 52.31671 4.74304 22 ft 18 kts
2026-05-05 17:26 52.31790 4.74313 16 ft 16 kts
2026-05-05 17:26 52.31907 4.74324 13 ft 16 kts
2026-05-05 17:27 52.32011 4.74285 13 ft 16 kts 306°
2026-05-05 17:27 52.32032 4.74109 17 ft 16 kts 277°
2026-05-05 17:27 52.32042 4.73930 21 ft 16 kts 273°
2026-05-05 17:27 52.32048 4.73753 24 ft 16 kts 274°
2026-05-05 17:28 52.32055 4.73571 25 ft 17 kts 273°
2026-05-05 17:28 52.32083 4.73378 17 ft 19 kts 304°
2026-05-05 17:28 52.32182 4.73220 11 ft 21 kts 319°
2026-05-05 17:28 52.32297 4.73060 4 ft 23 kts 320°
2026-05-05 17:29 52.32419 4.72894 2 ft 23 kts 320°
2026-05-05 17:29 52.32537 4.72725 2 ft 23 kts 318°
2026-05-05 17:29 52.32655 4.72556 4 ft 20 kts 318°
2026-05-05 17:29 52.32696 4.72487 5 ft 2 kts 313°
2026-05-05 17:30 52.32697 4.72486 5 ft 0 kts 313°
2026-05-05 17:30 52.32710 4.72462 6 ft 5 kts 313°
2026-05-05 17:30 52.32737 4.72414 3 ft 14 kts 308°
2026-05-05 17:31 52.32812 4.72274 5 ft 17 kts 311°
2026-05-05 17:31 52.32894 4.72122 2 ft 19 kts 311°
2026-05-05 17:31 52.33010 4.71911 5 ft 19 kts 312°
2026-05-05 17:31 52.33098 4.71750 9 ft 19 kts 311°
2026-05-05 17:32 52.33144 4.71624 12 ft 21 kts 283°
2026-05-05 17:32 52.33072 4.71403 17 ft 24 kts 225°
2026-05-05 17:32 52.32948 4.71221 19 ft 24 kts 221°
2026-05-05 17:32 52.32870 4.71053 19 ft 18 kts 257°
2026-05-05 17:33 52.32920 4.70896 20 ft 17 kts 349°
2026-05-05 17:33 52.32969 4.70894 19 ft 0 kts
2026-05-05 17:33 52.32999 4.70897 18 ft 27 kts
2026-05-05 17:33 52.33474 4.70942 25 ft 107 kts
2026-05-05 17:34 52.34438 4.71046 37 ft 166 kts
2026-05-05 17:34 52.35684 4.71169 486 ft 189 kts
2026-05-05 17:34 52.37077 4.71291 1177 ft 200 kts
2026-05-05 17:34 52.38379 4.71402 2459 ft 182 kts
2026-05-05 17:35 52.39704 4.71518 2869 ft 204 kts
2026-05-05 17:35 52.41222 4.71651 3138 ft 232 kts
2026-05-05 17:35 52.42848 4.71379 3687 ft 245 kts 343°
2026-05-05 17:35 52.44352 4.69943 4438 ft 257 kts 323°
2026-05-05 17:36 52.45660 4.67913 5328 ft 261 kts 319°
2026-05-05 17:36 52.46932 4.65781 6173 ft 266 kts 315°
2026-05-05 17:36 52.48229 4.63582 6955 ft 269 kts 315°
2026-05-05 17:36 52.49524 4.61419 7830 ft 271 kts 315°
2026-05-05 17:37 52.50871 4.59195 8548 ft 278 kts 315°
2026-05-05 17:37 52.52097 4.56752 9302 ft 279 kts 303°
2026-05-05 17:37 52.53083 4.53988 10111 ft 282 kts 299°
2026-05-05 17:37 52.54033 4.51086 10617 ft 299 kts 298°
2026-05-05 17:38 52.55057 4.47934 10817 ft 326 kts 298°
2026-05-05 17:38 52.56174 4.44524 11031 ft 352 kts 298°
2026-05-05 17:38 52.57369 4.40927 11706 ft 364 kts 298°
2026-05-05 17:38 52.58604 4.37247 12635 ft 370 kts 298°
2026-05-05 17:39 52.59862 4.33526 13715 ft 373 kts 298°
2026-05-05 17:39 52.61135 4.29773 14629 ft 378 kts 298°
2026-05-05 17:39 52.62414 4.26014 15511 ft 383 kts 298°
2026-05-05 17:39 52.63724 4.22160 16394 ft 389 kts 298°
2026-05-05 17:40 52.65056 4.18233 17217 ft 396 kts 298°
2026-05-05 17:40 52.66412 4.14232 18024 ft 404 kts 298°
2026-05-05 17:40 52.67793 4.10157 18807 ft 409 kts 298°
2026-05-05 17:40 52.69186 4.06044 19605 ft 412 kts 297°
2026-05-05 17:41 52.70584 4.01899 20490 ft 414 kts 296°
2026-05-05 17:41 52.71985 3.97747 21367 ft 416 kts 296°
2026-05-05 17:41 52.73409 3.93532 22016 ft 424 kts 297°
2026-05-05 17:41 52.74847 3.89253 22705 ft 430 kts 297°
2026-05-05 17:42 52.76306 3.84898 23382 ft 435 kts 296°
2026-05-05 17:42 52.77773 3.80500 23923 ft 438 kts 297°
2026-05-05 17:42 52.79251 3.76086 23937 ft 438 kts 296°
2026-05-05 17:42 52.80703 3.71737 23957 ft 439 kts 296°
2026-05-05 17:43 52.82183 3.67296 23960 ft 440 kts 296°
2026-05-05 17:43 52.83657 3.62862 23970 ft 441 kts 296°
2026-05-05 17:43 52.85145 3.58378 24408 ft 445 kts 297°
2026-05-05 17:43 52.86637 3.53878 25092 ft 446 kts 296°
2026-05-05 17:44 52.88128 3.49365 25794 ft 448 kts 296°
2026-05-05 17:44 52.89626 3.44824 26381 ft 451 kts 296°
2026-05-05 17:44 52.91135 3.40238 26912 ft 456 kts 296°